Weather in Sunbury

Australia     37°34′46″S   144°43′29″E
temp.,
°C
wind,
m/s
gust,
m/s
humid.,
%
clouds,
%
prec.,
mm/h
press.,
hPa
HPBL,
m
22 april, thu
thu2201:00+8nw5126098 0.0 1014315
04:00+9nw6125630 0.0 1013509
07:00+9nw5126490 0.0 1013454
10:00+13wnw696135 0.0 10131011
13:00+13w6856100 0.1 10131602
16:00+14wsw564548 0.1 10121648
19:00+12w366220 0.0 1015316
22:00+11nw376495 0.0 1016277
23 april, fri
fri2301:00+10wnw366985 0.0 1016199
04:00+8wnw3486100 0.0 101698
07:00+8wnw359050 0.1 1018100
10:00+13sw565351 0.1 10191431
13:00+14sw464879 0.0 10191648
16:00+15sw564729 0.0 10181372
19:00+10sw356784 0.0 1021137
22:00+9w227239 0.0 102252
24 april, sat
sat2401:00+10w236781 0.0 102286
04:00+10w246172 0.0 1022133
07:00+8wnw357483 0.0 102380
10:00+14wsw454964 0.0 10231336
13:00+15wsw4648100 0.0 10221692
16:00+15sw2449100 0.0 1022991
19:00+13wsw246388 0.0 1023107
22:00+10w368435 0.1 1024194
25 april, sun
sun2501:00+8w34939 0.0 102469
04:00+8w24948 0.0 102463
07:00+8wnw229126 0.0 102540
10:00+13sw577173 0.2 10251026
13:00+13sw466379 0.1 10251091
16:00+14sw576076 0.2 10241248
19:00+10sw368773 0.3 1026191
22:00+9wsw259639 0.5 1028117
26 april, mon
mon2601:00+7wsw22962 0.0 102835
04:00+7w129632 0.0 102817
07:00+9w2691100 0.0 1029249
10:00+12sw357481 0.0 1029563
13:00+15s43555 0.0 10281117
16:00+14s33535 0.0 10271035
19:00+9s22780 0.0 102920
22:00+8wsw229157 0.0 102932